Weather in Florida City

United States     25°27′05″N   80°28′56″W
temp.,
°C
wind,
m/s
gust,
m/s
humid.,
%
clouds,
%
prec.,
mm/h
press.,
hPa
HPBL,
m
18 september, sat
sat1823:00+26nnw2484100 1.4 1019126
02:00+25nnw2286100 1.4 101761
05:00+25n118798 0.0 101714
08:00+25nnw008192 0.0 101862
11:00+30n125934 0.0 1018932
14:00+33nne1248100 0.0 10161848
17:00+29sse446799 1.0 1015321
20:00+28s237499 2.2 101687
19 september, sun
sun1923:00+26nnw3482100 3.6 1018120
02:00+25n238382 4.2 101689
05:00+25nnw1180100 0.4 101515
08:00+26n228040 0.4 1016111
11:00+30ne225957 0.0 1017939
14:00+33ese324957 0.0 10151772
17:00+31se545799 0.1 1013632
20:00+28sse2372100 0.3 101595
20 september, mon
mon2023:00+26w0080100 2.1 101617
02:00+27nnw1180100 3.2 101512
05:00+26nne118146 0.1 101518
08:00+27e127777 0.1 1016103
11:00+31ese446064 0.0 10171270
14:00+32ese545734 1.2 10151390
17:00+31ese546162 1.4 10141209
20:00+27ene4781100 6.4 1016185
21 september, tue
tue2123:00+26nne3680100 2.7 1017238
02:00+26ne2378100 2.7 1016110
05:00+26ene368198 0.0 1015196
08:00+27e36828 0.0 1016272
11:00+31e556111 0.2 10171351
14:00+32e5455100 0.5 10161703
17:00+31e546079 0.3 10151133
20:00+28e3575100 0.5 1015338
22 september, wed
wed2223:00+27e2582100 1.3 1016162
02:00+27ene248257 1.4 1015147
05:00+26ene2382100 0.0 101469
08:00+27ene238169 0.0 1015130
11:00+30ese226640 0.1 10151015
14:00+33ese325186 0.6 10131869
17:00+30se216298 2.1 1012854
20:00+27wsw2376100 8.1 101363